Погода в Екатерининском

Россия / Алтайский край     50°54′37″N   82°01′00″E
темп.,
°C
ветер,
м/с
пор.,
м/с
влажн.,
%
обл.,
%
осадки,
мм/ч
давл.,
гПа
погр.,
м
7 мая, пт
пт701:00+19ю3449100 0.0 100646
04:00+17юв2250100 0.0 100717
07:00+17вюв1153100 0.0 100911
10:00+18ссз5760100 0.0 1012522
13:00+15с6860100 0.0 1015590
16:00+13ссз2474100 0.1 1017338
19:00+16ссз1250100 0.1 1018625
22:00+12вюв116693 0.0 101910
8 мая, сб
сб801:00+10с227246 0.0 102013
04:00+9ссв3465100 0.0 102059
07:00+8с386521 0.0 1021153
10:00+14ссв6843100 0.0 1020689
13:00+18ссв67325 0.0 10191060
16:00+20ссв78300 0.0 10181213
19:00+18ссв68380 0.0 1018921
22:00+12св310545 0.0 1019154
9 мая, вс
вс901:00+10ссв35525 0.0 101959
04:00+9ссв34545 0.0 101857
07:00+9ссв310595 0.0 1018171
10:00+18св683976 0.0 1017654
13:00+21св663023 0.0 10151105
16:00+23св662844 0.0 10141337
19:00+21св694012 0.0 1013764
22:00+15св5115378 0.0 1013264
10 мая, пн
пн1001:00+12всв2264100 0.0 101123
04:00+11в2262100 0.0 101012
07:00+12в225990 0.0 100916
10:00+20юв233948 0.0 1007464
13:00+25ююв122515 0.0 10051404
16:00+25юз462632 0.0 10032611
19:00+21с684820 0.0 1003461
22:00+14ссв5106884 0.3 1006384
11 мая, вт
вт1101:00+12с71259100 0.8 1008529
04:00+10с6125764 0.3 1011591
07:00+8с510651 0.3 1014489
10:00+12с68520 0.0 1016995
13:00+15с684044 0.0 10162109
16:00+16ссз793426 0.0 10162477
19:00+15с683726 0.0 10172447
22:00+10св375612 0.0 1020156